Regional Weather Roundup
Issued by NWS

Home | Current Version | Previous Version | Graphics & Text | Print | Product List | Glossary On
Versions: 1 2 3 4 5 6 7 8 9 10 11 12 13 14 15 16 17 18 19 20 21 22 23 24 25 26 27 28 29 30 31 32 33 34 35 36 37 38 39 40 41 42 43 44 45 46 47 48 49 50
000
ASUS43 KOAX 170410
RWRNE

WEATHER ROUNDUP FOR NEBRASKA
NATIONAL WEATHER SERVICE OMAHA NE
1100 PM CDT WED APR 16 2014

NOTES: SATELLITE DATA IS BEING USED TO AUGMENT CLOUD COVER ABOVE
       12000 FEET.
       "FAIR" INDICATES FEW OR NO CLOUDS BELOW 12,000 FEET WITH NO
       SIGNIFICANT WEATHER AND/OR OBSTRUCTIONS TO VISIBILITY.

  * THESE STATIONS DO NOT REPORT WEATHER SUCH AS RAIN...SNOW OR FOG.

NEZ001>004-019>022-054>056-170500-
NEBRASKA PANHANDLE

CITY           SKY/WX    TMP DP  RH WIND       PRES   REMARKS
SCOTTSBLUFF    PTCLDY    35  29  78 SE8       30.13R WCI  29
ALLIANCE       CLOUDY    34  29  82 E13       30.12R WCI  25
CHADRON        CLOUDY    35  31  85 E6        30.13R WCI  30
KIMBALL        MOCLDY    34  28  80 E7        30.09R WCI  28
SIDNEY         PTCLDY    31  26  82 E9        30.13R WCI  23
$$

NEZ057>060-069>072-079>082-170500-
SOUTHWEST NEBRASKA

CITY           SKY/WX    TMP DP  RH WIND       PRES   REMARKS
NORTH PLATTE   CLOUDY    34  27  75 NE15G23   30.14R WCI  24
IMPERIAL       MOCLDY    35  30  82 NE6       30.14R WCI  30
LEXINGTON      CLOUDY    35  29  80 N13G20    30.13S WCI  26
MCCOOK         PTCLDY    37  30  75 N14       30.15R WCI  28
OGALLALA       CLOUDY    36  30  78 NE8       30.15R WCI  30
$$

NEZ005>010-023>029-035>040-094-170500-
NORTH CENTRAL NEBRASKA

CITY           SKY/WX    TMP DP  RH WIND       PRES   REMARKS
VALENTINE      CLOUDY    31  22  69 N12       30.19R WCI  22
AINSWORTH      CLOUDY    31  24  78 N12       30.19R WCI  21
BROKEN BOW     CLOUDY    31  25  78 N18G25    30.15R WCI  19
O`NEILL        CLOUDY    32  23  70 N13G24    30.16R WCI  22
ORD            CLOUDY    32  25  75 N10G20    30.15R WCI  24
THEDFORD       CLOUDY    32  27  80 N10       30.16F WCI  24
$$

NEZ041-046>049-061>064-073>077-083>087-170500-
SOUTH CENTRAL NEBRASKA

CITY           SKY/WX    TMP DP  RH WIND       PRES   REMARKS
GRAND ISLAND   CLOUDY    35  26  69 N21G29    30.14R WCI  24
AURORA         CLOUDY    36  28  73 N20       30.13R WCI  25
HASTINGS       CLOUDY    35  26  69 N15       30.13R WCI  25
HEBRON         CLOUDY    37  29  71 N12       30.13R WCI  30
HOLDREGE       MOCLDY    34  29  83 N13       30.13R WCI  25
KEARNEY *      CLOUDY    34  27  75 N17       30.14R WCI  23
YORK           CLOUDY    36  27  69 N16G24    30.13R WCI  26
$$

NEZ011>018-030>034-042>045-170500-
NORTHEAST NEBRASKA

CITY           SKY/WX    TMP DP  RH WIND       PRES   REMARKS
NORFOLK        CLOUDY    32  24  72 N24       30.11R WCI  19
ALBION         CLOUDY    32  24  72 N20G26    30.13R WCI  20
BLAIR          CLOUDY    35  28  76 NW17G28   30.07R WCI  24
COLUMBUS *     CLOUDY    34  21  60 N18G25    30.13R WCI  23
FREMONT        CLOUDY    36  28  75 NW23G31   30.11R WCI  24
TEKAMAH        CLOUDY    36  27  69 NW24G31   30.09R WCI  24
$$

NEZ050>053-065>068-078-088>093-170500-
SOUTHEAST NEBRASKA

CITY           SKY/WX    TMP DP  RH WIND       PRES   REMARKS
LINCOLN        CLOUDY    39  26  59 N22G30    30.12R WCI  29
OMAHA EPPLEY   CLOUDY    37  29  72 NW21G28   30.08R WCI  26
BEATRICE       MOCLDY    38  28  68 NW14      30.11R WCI  30
FALLS CITY     PTCLDY    39  30  70 NW17G28   30.06R WCI  30
NEBRASKA CITY  PTCLDY    38  30  73 NW20G26   30.07R WCI  28
PLATTSMOUTH    CLOUDY    38  29  70 NW17G26   30.07R WCI  29
$$

NEZ044-045-051>053-067-170500-
OMAHA AREA

CITY           SKY/WX    TMP DP  RH WIND       PRES   REMARKS
OMAHA EPPLEY   CLOUDY    37  29  72 NW21G28   30.08R WCI  26
BLAIR          CLOUDY    35  28  76 NW17G28   30.07R WCI  24
FREMONT        CLOUDY    36  28  75 NW23G31   30.11R WCI  24
MILLARD        CLOUDY    37  28  71 NW17G26   30.09R WCI  27
OFFUTT AFB     CLOUDY    38  31  76 NW12      30.08R WCI  30
PLATTSMOUTH    CLOUDY    38  29  70 NW17G26   30.07R WCI  29
WAHOO          CLOUDY    36  26  69 N26G33    30.09S WCI  23
$$



USA.gov is the U.S. government's official web portal to all federal, state and local government web resources and services.